Regional Weather Roundup
Issued by NWS

Home | Current Version | Previous Version | Text Only | Print | Product List | Glossary On
Versions: 1 2 3 4 5 6 7 8 9 10 11 12 13 14 15 16 17 18 19 20 21 22 23 24 25 26 27 28 29 30 31 32 33 34 35 36 37 38 39 40 41 42 43 44 45 46 47 48 49 50
000
ASUS43 KBIS 250110
RWRND

NORTH DAKOTA REGIONAL WEATHER ROUNDUP
NATIONAL WEATHER SERVICE BISMARCK ND
800 PM CDT THU JUL 24 2014

NOTE: "FAIR" INDICATES FEW OR NO CLOUDS BELOW 12,000 FEET WITH NO
SIGNIFICANT WEATHER AND/OR OBSTRUCTIONS TO VISIBILITY.


NDZ001>003-009>011-017-250200-
NORTHWEST NORTH DAKOTA

CITY           SKY/WX    TMP DP  RH WIND       PRES   REMARKS
WILLISTON      PTSUNNY   82  66  58 S8        29.65S
MINOT          MOSUNNY   75  65  70 SE10      29.67F
MINOT AFB      PTSUNNY   77  68  74 SE10      29.67F
$$

NDZ018>021-031>035-040>046-250200-
SOUTHWEST NORTH DAKOTA

CITY           SKY/WX    TMP DP  RH WIND       PRES   REMARKS
BISMARCK       SUNNY     78  66  66 SE18G24   29.71F
DICKINSON      PTSUNNY   75  68  78 SE15      29.67F
GARRISON         N/A     75  67  76 SE13      29.68F
HETTINGER ARPT CLOUDY    79  68  69 E7        29.72R
$$

NDZ004>008-012>016-024-026-027-054-250200-
NORTHEAST NORTH DAKOTA

CITY           SKY/WX    TMP DP  RH WIND       PRES   REMARKS
GRAND FORKS    PTSUNNY   73  63  70 SE12      29.81F
GRND FRKS AFB  PTSUNNY   72  66  82 E17       29.75F
DEVILS LAKE    CLOUDY    72  63  73 SE18G28   29.73R
$$

NDZ022-023-025-028>030-036>039-047>053-250200-
SOUTHEAST NORTH DAKOTA

CITY           SKY/WX    TMP DP  RH WIND       PRES   REMARKS
FARGO          CLOUDY    74  62  66 S7        29.92R
JAMESTOWN      MOSUNNY   73  64  73 SE12      29.79F
$$



USA.gov is the U.S. government's official web portal to all federal, state and local government web resources and services.